[[[{"header":{"parameterUnit":"kt","parameterCategory":2,"dx":1,"dy":1,"la1":30.253999710083008,"la2":30.299108505249023,"lo1":-89.0895004272461,"lo2":-89.04439544677734,"nx":28,"ny":28,"refTime":"2022-10-04T21:00:00:Z","depth":0,"parameterNumber":1,"parameterNumberName":"U-component_of_WINDS"},"data":[1.1793,1.184,1.1858,1.1919,1.1945,1.199,1.2011,1.2041,1.2069,1.2123,1.2158,1.2179,1.2213,1.2258,1.2295,1.2304,1.2318,1.2322,1.2331,1.2299,1.2295,1.2292,1.2282,1.2325,1.2325,1.2363,1.2363,1.2363,1.1768,1.1795,1.1833,1.1881,1.1913,1.192,1.1959,1.1985,1.2025,1.2059,1.2094,1.2143,1.2184,1.2217,1.2258,1.228,1.2285,1.229,1.2288,1.2293,1.2259,1.2248,1.2285,1.2285,1.2285,1.2285,1.2285,1.2285,1.1728,1.1755,1.1795,1.1836,1.1865,1.1897,1.1925,1.1952,1.1988,1.2035,1.2048,1.2092,1.2129,1.2188,1.2212,1.2246,1.2244,1.2254,1.2257,1.2258,1.2258,1.2201,1.2254,1.2254,1.2254,1.2254,1.2254,0,1.1703,1.1716,1.1753,1.1796,1.1826,1.1861,1.1895,1.1913,1.1945,1.1974,1.2017,1.2044,1.2098,1.2139,1.2182,1.2205,1.2213,1.2216,1.2223,1.2217,1.2206,1.2211,1.2154,1.2214,1.2214,1.2213,1.2213,1.2213,1.1663,1.1692,1.1742,1.1766,1.1789,1.1826,1.1852,1.1878,1.1904,1.195,1.1972,1.2014,1.2049,1.2114,1.2143,1.2183,1.2188,1.2208,1.2193,1.2187,1.2187,1.2185,1.2187,1.221,1.2211,1.2211,1.2211,0,1.1638,1.1667,1.1718,1.1764,1.1776,1.1806,1.1845,1.1872,1.1895,1.1936,1.1947,1.1982,1.2023,1.2049,1.2101,1.2113,1.2161,1.2165,1.2149,1.215,1.2171,1.2168,1.2236,1.2245,1.2202,1.2202,1.2202,0,1.1614,1.1652,1.1692,1.172,1.1763,1.1788,1.183,1.1853,1.1885,1.1918,1.1933,1.1963,1.1992,1.2026,1.2044,1.2088,1.2098,1.211,1.2114,1.2108,1.2106,1.2121,1.2118,1.2123,1.2123,1.2122,1.2122,0,1.1572,1.1638,1.1684,1.1703,1.1755,1.1776,1.1799,1.1835,1.186,1.1896,1.1912,1.1953,1.1974,1.2005,1.2028,1.2017,1.2083,1.2072,1.2095,1.2094,1.2107,1.2105,1.216,1.2122,1.2122,1.2121,1.2121,0,1.1556,1.1593,1.1656,1.17,1.1716,1.1746,1.1788,1.182,1.1857,1.187,1.1899,1.1911,1.1952,1.194,1.1997,1.1976,1.1996,1.2011,1.2013,1.2018,1.2002,1.2028,1.2078,1.2084,1.2023,1.2022,1.2021,0,1.15,1.1571,1.1593,1.1652,1.1688,1.1702,1.1736,1.1768,1.1789,1.1823,1.1846,1.1883,1.188,1.1895,1.192,1.1944,1.1972,1.1942,1.1988,1.199,1.1977,1.2024,1.2024,1.2064,1.2011,1.2012,1.2013,0,1.146,1.1522,1.1531,1.1554,1.1601,1.1631,1.1671,1.1714,1.1734,1.1769,1.1802,1.1856,1.1855,1.188,1.1894,1.1919,1.1954,1.1914,1.1916,1.192,1.2009,1.2009,1.2015,1.1958,1.1959,1.196,1.2005,0,1.1429,1.1468,1.1493,1.1542,1.157,1.1608,1.1636,1.1661,1.1672,1.1693,1.1742,1.1775,1.1818,1.1833,1.1843,1.1891,1.1887,1.1885,1.1874,1.1904,1.192,1.1926,1.1849,1.1849,1.1848,1.1848,0,0,1.1367,1.1423,1.1445,1.1484,1.1509,1.1522,1.156,1.1585,1.1636,1.1652,1.1646,1.1726,1.1753,1.181,1.1821,1.1839,1.185,1.1838,1.189,1.1894,1.1899,1.1914,1.1921,1.1848,1.1848,1.1848,1.1848,0,1.1361,1.1389,1.1427,1.1454,1.1495,1.1515,1.1525,1.1567,1.1582,1.163,1.164,1.1672,1.1736,1.1763,1.1784,1.1832,1.1837,1.1843,1.186,1.1887,1.1892,1.1896,1.1913,1.1919,1.1848,1.1848,1.1848,0,1.1326,1.1358,1.1379,1.1435,1.1461,1.1498,1.1493,1.1532,1.1559,1.157,1.1618,1.164,1.1678,1.1728,1.1752,1.1747,1.1823,1.1804,1.1806,1.1808,1.1836,1.1842,1.1847,1.1781,1.178,1.178,0,0,1.1317,1.1353,1.1394,1.1435,1.1452,1.1482,1.1504,1.1517,1.1551,1.1565,1.1592,1.1625,1.1662,1.1686,1.1722,1.1773,1.1783,1.1795,1.1798,1.18,1.1804,1.1833,1.1839,1.1779,1.1779,1.1779,0,0,1.1312,1.1362,1.1366,1.1418,1.1451,1.1493,1.1517,1.1524,1.1559,1.1558,1.1581,1.159,1.1638,1.1658,1.1638,1.1718,1.1706,1.1712,1.1703,1.1707,1.171,1.1704,1.1637,0,0,0,0,0,1.132,1.1356,1.136,1.1372,1.1442,1.1491,1.1501,1.152,1.1512,1.1531,1.1555,1.1558,1.1652,1.1635,1.1647,1.1669,1.1762,1.1765,1.1768,1.1768,1.1772,1.1776,0,0,0,0,0,0,1.1325,1.134,1.1359,1.1403,1.1419,1.149,1.148,1.1486,1.151,1.151,1.1554,1.156,1.1577,1.163,1.164,1.1661,1.1633,1.1763,1.1766,1.1768,1.177,1.1773,1.1776,0,0,0,0,0,1.1329,1.1341,1.1449,1.1402,1.1416,1.1451,1.1479,1.1484,1.1503,1.154,1.1546,1.1516,1.1577,1.1588,1.1636,1.1656,1.1626,1.163,1.1765,1.1767,1.1769,1.1771,0,0,0,0,0,0,1.1332,1.1347,1.1452,1.1457,1.139,1.1448,1.1457,1.1482,1.1532,1.1538,1.1503,1.1502,1.1578,1.1586,1.1594,1.1653,1.162,1.1624,1.1627,1.1766,1.1768,1.1769,0,0,0,0,0,0,1.134,1.1351,1.1455,1.1438,1.1441,1.1444,1.1453,1.1497,1.1532,1.1492,1.1493,1.1502,1.1566,1.1585,1.1591,1.1659,1.1616,1.1619,1.1622,1.1624,1.1768,1.1769,0,0,0,0,0,0,1.1345,1.1354,1.1437,1.1439,1.1442,1.1499,1.1483,1.1554,1.1518,1.1489,1.1515,1.1514,1.1565,1.1571,1.1589,1.1654,1.1657,1.1616,1.1618,1.162,1.1621,0,0,0,0,0,0,0,1.1349,1.1283,1.1423,1.144,1.1443,1.1503,1.1504,1.1506,1.1518,1.1517,1.1515,1.1514,1.1594,1.1598,1.1602,1.165,0,0,1.1615,1.1617,0,0,0,0,0,0,0,0,1.1279,1.1282,1.1423,1.1424,1.1425,1.1503,1.1504,1.1505,1.1517,1.1517,1.1516,1.1515,1.1595,1.1599,1.1602,0,0,0,0,0,0,0,0,0,0,0,0,0,0,0,1.1423,1.1424,0,1.1503,1.1504,1.1505,1.1517,1.1517,1.1516,1.1515,1.1596,1.1599,1.1602,0,0,0,0,0,0,0,0,0,0,0,0,0,0,0,0,0,0,0,0,0,0,0,0,0,0,0,0,0,0,0,0,0,0,0,0,0,0,0,0,0,0,0,0,0,0,0,0,0,0,0,0,0,0,0,0,0,0,0,0,0,0,0,0,0,0,0,0,0]}],[{"header":{"parameterUnit":"kt","parameterCategory":2,"dx":1,"dy":1,"la1":30.253999710083008,"la2":30.299108505249023,"lo1":-89.0895004272461,"lo2":-89.04439544677734,"nx":28,"ny":28,"refTime":"2022-10-04T21:00:00:Z","depth":0,"parameterNumber":2,"parameterNumberName":"V-component_of_WINDS"},"data":[1.5417,1.5531,1.5555,1.5695,1.5742,1.5841,1.5884,1.5942,1.5995,1.6115,1.6189,1.6225,1.6287,1.638,1.6459,1.6474,1.6503,1.6523,1.6536,1.6428,1.6414,1.6401,1.6375,1.653,1.6531,1.6643,1.6644,1.6644,1.5324,1.5371,1.5455,1.5552,1.5622,1.5617,1.5694,1.5753,1.5842,1.591,1.5985,1.6093,1.6182,1.624,1.6329,1.638,1.6382,1.6401,1.6396,1.6405,1.6291,1.6263,1.6398,1.6398,1.6398,1.6398,1.6398,1.6398,1.5162,1.5231,1.5305,1.5396,1.5453,1.5518,1.5587,1.5632,1.5714,1.5813,1.583,1.5932,1.6004,1.6127,1.6175,1.6253,1.6236,1.6265,1.6272,1.6278,1.6278,1.6102,1.627,1.627,1.627,1.627,1.6269,0,1.505,1.5067,1.5151,1.5241,1.531,1.5383,1.5455,1.5499,1.5545,1.5612,1.5709,1.577,1.5889,1.5982,1.6074,1.6119,1.612,1.6125,1.6145,1.6135,1.6112,1.6119,1.5927,1.612,1.6119,1.6118,1.6117,1.6117,1.4884,1.4964,1.5057,1.5112,1.5159,1.5248,1.5307,1.5343,1.5403,1.5497,1.5556,1.5652,1.573,1.5883,1.5936,1.6025,1.6026,1.6095,1.604,1.6026,1.6021,1.6014,1.6019,1.6105,1.6106,1.6107,1.6108,0,1.4786,1.4831,1.4964,1.5051,1.5074,1.5156,1.5229,1.53,1.5339,1.5442,1.5468,1.5528,1.5624,1.5667,1.5787,1.5805,1.5932,1.5934,1.5904,1.5905,1.5968,1.5959,1.6175,1.6203,1.6047,1.6049,1.605,0,1.4659,1.4765,1.4825,1.49,1.5017,1.5052,1.5166,1.521,1.5277,1.5359,1.537,1.5446,1.5491,1.5573,1.5602,1.5714,1.5739,1.5758,1.5764,1.5755,1.5752,1.5785,1.5776,1.5782,1.578,1.5779,1.5779,0,1.4498,1.4658,1.4781,1.4825,1.493,1.4987,1.5033,1.511,1.5168,1.5251,1.5288,1.5384,1.5435,1.5506,1.5542,1.5502,1.5683,1.5636,1.5702,1.5701,1.5739,1.5735,1.5918,1.5777,1.5777,1.5776,1.5776,0,1.4403,1.4488,1.4663,1.4749,1.479,1.4873,1.4968,1.505,1.513,1.5154,1.5221,1.5233,1.5341,1.5288,1.5435,1.5371,1.5419,1.545,1.5455,1.5465,1.5405,1.5496,1.567,1.5687,1.5475,1.5472,1.547,0,1.4202,1.4393,1.4426,1.4593,1.4686,1.4691,1.4784,1.4857,1.4897,1.4981,1.5026,1.5123,1.5095,1.5131,1.5198,1.5247,1.533,1.5238,1.5352,1.5356,1.5325,1.5487,1.55,1.5627,1.5439,1.5442,1.5445,0,1.4053,1.4183,1.4212,1.4261,1.4367,1.4448,1.4556,1.4661,1.4714,1.4799,1.4887,1.5029,1.501,1.5073,1.5095,1.5162,1.5275,1.5135,1.5137,1.5154,1.543,1.544,1.5461,1.5274,1.5278,1.5281,1.542,0,1.3886,1.3992,1.4071,1.4188,1.4259,1.4369,1.4419,1.4485,1.4498,1.454,1.4674,1.4751,1.486,1.4899,1.4915,1.5058,1.504,1.5022,1.4973,1.5081,1.5127,1.5147,1.4899,1.4898,1.4897,1.4896,0,0,1.368,1.3833,1.3869,1.3977,1.4038,1.4044,1.4157,1.4218,1.4342,1.4383,1.4357,1.4567,1.4632,1.479,1.4828,1.4875,1.4903,1.4866,1.5031,1.5046,1.5059,1.5108,1.5128,1.4895,1.4894,1.4894,1.4894,0,1.363,1.3698,1.3811,1.3875,1.3973,1.4012,1.4039,1.4138,1.417,1.4307,1.4309,1.4397,1.4569,1.4633,1.4689,1.4848,1.4844,1.4878,1.4944,1.502,1.5036,1.505,1.5101,1.512,1.4892,1.4892,1.4892,0,1.3487,1.356,1.3622,1.3767,1.3832,1.3932,1.3892,1.4002,1.4076,1.408,1.4215,1.4265,1.4359,1.4505,1.4574,1.4551,1.4787,1.4726,1.4733,1.4741,1.4817,1.4836,1.4853,1.4626,1.4625,1.4624,0,0,1.3437,1.3537,1.3629,1.376,1.38,1.3863,1.3923,1.3944,1.4029,1.4063,1.4128,1.4209,1.4308,1.4373,1.447,1.4626,1.4646,1.4691,1.4703,1.4713,1.4726,1.4805,1.4824,1.462,1.462,1.462,0,0,1.3413,1.3524,1.3524,1.3683,1.3763,1.3863,1.394,1.3942,1.4035,1.4028,1.4069,1.4093,1.4232,1.4282,1.4218,1.4453,1.4404,1.4421,1.4415,1.4432,1.4444,1.4427,1.4188,0,0,0,0,0,1.3388,1.351,1.3508,1.3543,1.3729,1.3863,1.3887,1.3924,1.3886,1.3946,1.4,1.3995,1.4254,1.4198,1.4232,1.4303,1.4564,1.4574,1.4583,1.4613,1.4629,1.4643,0,0,0,0,0,0,1.3402,1.3444,1.3505,1.3609,1.3651,1.3859,1.3803,1.3817,1.3881,1.3877,1.3984,1.3998,1.4032,1.4184,1.4213,1.428,1.4179,1.4568,1.4576,1.4584,1.4618,1.4632,1.4644,0,0,0,0,0,1.3413,1.3447,1.3737,1.3608,1.3644,1.3722,1.3799,1.381,1.386,1.3946,1.3959,1.3882,1.4033,1.4061,1.4201,1.4266,1.4158,1.4169,1.4573,1.458,1.4586,1.4625,0,0,0,0,0,0,1.3422,1.3458,1.3745,1.3757,1.3565,1.3711,1.3735,1.3804,1.3925,1.394,1.3845,1.3841,1.4035,1.4056,1.4077,1.4258,1.4142,1.4153,1.416,1.4578,1.4584,1.4588,0,0,0,0,0,0,1.344,1.3468,1.3751,1.3696,1.3702,1.37,1.3722,1.3849,1.3926,1.3817,1.3818,1.3842,1.4004,1.4054,1.407,1.4267,1.4129,1.414,1.4147,1.4152,1.4583,1.4587,0,0,0,0,0,0,1.3452,1.3477,1.3693,1.3698,1.3703,1.3846,1.3813,1.4002,1.3879,1.3812,1.3869,1.3864,1.4001,1.4019,1.4065,1.4255,1.4264,1.413,1.4137,1.4142,1.4145,0,0,0,0,0,0,0,1.3463,1.329,1.3671,1.3699,1.3704,1.3872,1.3876,1.3879,1.3878,1.3874,1.387,1.3866,1.4069,1.408,1.4092,1.4245,0,0,1.4129,1.4134,0,0,0,0,0,0,0,0,1.328,1.3287,1.3671,1.3674,1.3676,1.3873,1.3875,1.3878,1.3877,1.3874,1.3871,1.3868,1.4072,1.4081,1.4091,0,0,0,0,0,0,0,0,0,0,0,0,0,0,0,1.3672,1.3674,0,1.3873,1.3875,1.3878,1.3877,1.3874,1.3871,1.3869,1.4075,1.4082,1.409,0,0,0,0,0,0,0,0,0,0,0,0,0,0,0,0,0,0,0,0,0,0,0,0,0,0,0,0,0,0,0,0,0,0,0,0,0,0,0,0,0,0,0,0,0,0,0,0,0,0,0,0,0,0,0,0,0,0,0,0,0,0,0,0,0,0,0,0,0]}]]]